Monroe, WI

5:31 AM CDT on July 21, 2017 (GMT -0500)
Monroe Municipal

Weather History for KEFT - October, 2012

Change the Weather History Date:

Wednesday, October 3, 2012

  Actual Average Record
Temperature  
Mean Temperature 60 °F -  
Max Temperature 73 °F 0 °F 86 °F (1997)
Min Temperature 46 °F - 35 °F (1999)
Degree Days  
Heating Degree Days 6    
Growing Degree Days 10 (Base 50)    
Moisture  
Dew Point 48 °F    
Average Humidity 73    
Maximum Humidity 100    
Minimum Humidity 31    
Precipitation  
Precipitation 0.00 in - - ()
Sea Level Pressure  
Sea Level Pressure 29.95 in    
Wind  
Wind Speed 6 mph (ENE)    
Max Wind Speed 12 mph    
Max Gust Speed -    
Visibility 8 miles    
Events Fog    
Averages and records for this station are not official NWS values.
T = Trace of Precipitation, MM = Missing Value Source: NWS Daily Summary

Daily Weather History Graph

Daily Weather History Graph

Search for Another Location

Airport or City:

Trip Planner

Search our weather history database for the weather conditions in past years. The results will help you decide how hot, cold, wet, or windy it might be!

Date:

Astronomy

Oct. 03, 2012 Rise Set
Actual Time 6:58 AM CDT 6:35 PM CDT
Civil Twilight 6:30 AM CDT 7:03 PM CDT
Nautical Twilight 5:57 AM CDT 7:36 PM CDT
Astronomical Twilight 5:24 AM CDT 8:08 PM CDT
Moon 8:22 PM CDT (10/3) 10:26 AM CDT (10/3)
Length of Visible Light 12h 33m
Length of Day
11h 37m
Waning Gibbous, 88% of the Moon is Illuminated
Oct 3
Waning Gibbous
Oct 8
Last Quarter
Oct 15
New
Oct 21
First Quarter
Oct 29
Full

Hourly Weather History & Observations

Time (CDT) Temp. Windchill Dew Point Humidity Pressure Visibility Wind Dir Wind Speed Gust Speed Precip Events Conditions
12:15 AM 53.6 °F - 44.6 °F 72% 29.93 in 10.0 mi East 5.8 mph - N/A   Clear
12:35 AM 51.8 °F - 44.6 °F 76% 29.93 in 10.0 mi ENE 4.6 mph - N/A   Clear
12:55 AM 51.8 °F - 46.4 °F 82% 29.93 in 10.0 mi East 4.6 mph - N/A   Clear
1:15 AM 51.8 °F - 48.2 °F 88% 29.93 in 10.0 mi East 5.8 mph - N/A   Clear
1:35 AM 51.8 °F - 48.2 °F 88% 29.93 in 10.0 mi ENE 4.6 mph - N/A   Clear
1:55 AM 50.0 °F - 46.4 °F 87% 29.93 in 10.0 mi NNE 5.8 mph - N/A   Clear
2:15 AM 50.0 °F - 46.4 °F 87% 29.93 in 10.0 mi NNE 5.8 mph - N/A   Clear
2:57 AM 50.0 °F - 48.2 °F 94% 29.93 in 10.0 mi North 5.8 mph - N/A   Clear
3:17 AM 50.0 °F - 48.2 °F 94% 29.93 in 7.0 mi North 5.8 mph - N/A   Clear
3:43 AM 48.2 °F - 48.2 °F 100% 29.93 in 7.0 mi NNE 4.6 mph - N/A   Clear
3:57 AM 48.2 °F - 48.2 °F 100% 29.93 in 7.0 mi NNE 5.8 mph - N/A   Clear
4:15 AM 48.2 °F - 48.2 °F 100% 29.93 in 5.0 mi NE 6.9 mph - N/A   Clear
4:35 AM 50.0 °F - 50.0 °F 100% 29.93 in 4.0 mi NNE 5.8 mph - N/A   Clear
4:55 AM 50.0 °F - 50.0 °F 100% 29.93 in 0.5 mi NE 6.9 mph - N/A Fog Fog
5:15 AM 50.0 °F - 50.0 °F 100% 29.94 in 1.8 mi NNE 5.8 mph - N/A   Overcast
5:35 AM 50.0 °F - 50.0 °F 100% 29.94 in 0.2 mi NNE 4.6 mph - N/A Fog Fog
5:55 AM 50.0 °F - 50.0 °F 100% 29.94 in 0.2 mi NNE 4.6 mph - N/A Fog Fog
6:15 AM 50.0 °F - 50.0 °F 100% 29.94 in 0.2 mi NE 5.8 mph - N/A Fog Fog
6:35 AM 50.0 °F - 50.0 °F 100% 29.95 in 1.5 mi North 4.6 mph - N/A   Mostly Cloudy
6:55 AM 50.0 °F - 50.0 °F 100% 29.95 in 1.2 mi North 6.9 mph - N/A   Mostly Cloudy
7:15 AM 48.2 °F - 48.2 °F 100% 29.95 in 1.5 mi North 5.8 mph - N/A   Mist
7:35 AM 48.2 °F - 48.2 °F 100% 29.96 in 0.2 mi North 5.8 mph - N/A Fog Fog
7:55 AM 46.4 °F 42.4 °F 46.4 °F 100% 29.96 in 0.2 mi North 8.1 mph - N/A Fog Fog
8:15 AM 48.2 °F - 48.2 °F 100% 29.97 in 0.2 mi NNW 5.8 mph - N/A Fog Fog
8:35 AM 50.0 °F - 50.0 °F 100% 29.97 in 0.2 mi North 4.6 mph - N/A Fog Fog
8:55 AM 50.0 °F - 50.0 °F 100% 29.98 in 0.2 mi North 4.6 mph - N/A Fog Fog
9:15 AM 51.8 °F - 51.8 °F 100% 29.98 in 0.2 mi North 5.8 mph - N/A Fog Fog
9:35 AM 53.6 °F - 53.6 °F 100% 29.98 in 2.0 mi North 5.8 mph - N/A   Overcast
9:55 AM 53.6 °F - 53.6 °F 100% 29.98 in 5.0 mi NE 4.6 mph - N/A   Mostly Cloudy
10:15 AM 55.4 °F - 55.4 °F 100% 29.97 in 2.5 mi NE 3.5 mph - N/A   Overcast
10:35 AM 59.0 °F - 55.4 °F 88% 29.98 in 10.0 mi Calm Calm - N/A   Scattered Clouds
10:55 AM 60.8 °F - 51.8 °F 72% 29.97 in 10.0 mi Calm Calm - N/A   Clear
11:15 AM 64.4 °F - 51.8 °F 64% 29.97 in 10.0 mi North 3.5 mph - N/A   Clear
11:35 AM 68.0 °F - 50.0 °F 52% 29.96 in 10.0 mi Calm Calm - N/A   Clear
11:55 AM 68.0 °F - 44.6 °F 43% 29.96 in 10.0 mi NE 4.6 mph - N/A   Clear
12:15 PM 69.8 °F - 41.0 °F 35% 29.95 in 10.0 mi North 5.8 mph - N/A   Scattered Clouds
12:35 PM 69.8 °F - 41.0 °F 35% 29.95 in 10.0 mi North 3.5 mph - N/A   Mostly Cloudy
12:55 PM 69.8 °F - 41.0 °F 35% 29.95 in 10.0 mi ENE 3.5 mph - N/A   Overcast
1:15 PM 69.8 °F - 41.0 °F 35% 29.94 in 10.0 mi NE 6.9 mph - N/A   Overcast
1:35 PM 69.8 °F - 42.8 °F 38% 29.94 in 10.0 mi North 3.5 mph - N/A   Overcast
1:55 PM 69.8 °F - 42.8 °F 38% 29.94 in 10.0 mi NE 3.5 mph - N/A   Overcast
2:15 PM 71.6 °F - 41.0 °F 33% 29.93 in 10.0 mi Calm Calm - N/A   Overcast
2:35 PM 73.4 °F - 41.0 °F 31% 29.93 in 10.0 mi NNW 3.5 mph - N/A   Overcast
2:55 PM 71.6 °F - 42.8 °F 35% 29.93 in 10.0 mi ENE 8.1 mph - N/A   Mostly Cloudy
3:15 PM 71.6 °F - 42.8 °F 35% 29.93 in 10.0 mi ENE 8.1 mph - N/A   Mostly Cloudy
3:35 PM 71.6 °F - 42.8 °F 35% 29.93 in 10.0 mi ENE 8.1 mph - N/A   Scattered Clouds
3:55 PM 69.8 °F - 44.6 °F 40% 29.93 in 10.0 mi East 5.8 mph - N/A   Clear
4:15 PM 69.8 °F - 44.6 °F 40% 29.93 in 10.0 mi East 10.4 mph - N/A   Mostly Cloudy
4:35 PM 69.8 °F - 46.4 °F 43% 29.94 in 10.0 mi ESE 9.2 mph - N/A   Scattered Clouds
4:55 PM 68.0 °F - 46.4 °F 46% 29.94 in 10.0 mi East 9.2 mph - N/A   Clear
5:15 PM 68.0 °F - 46.4 °F 46% 29.95 in 10.0 mi ESE 8.1 mph - N/A   Clear
5:35 PM 66.2 °F - 44.6 °F 46% 29.95 in 10.0 mi East 6.9 mph - N/A   Clear
5:55 PM 66.2 °F - 46.4 °F 49% 29.95 in 10.0 mi East 4.6 mph - N/A   Clear
6:15 PM 64.4 °F - 46.4 °F 52% 29.95 in 10.0 mi East 3.5 mph - N/A   Clear
6:35 PM 62.6 °F - 46.4 °F 55% 29.95 in 10.0 mi ESE 4.6 mph - N/A   Clear
6:55 PM 62.6 °F - 46.4 °F 55% 29.95 in 10.0 mi ESE 4.6 mph - N/A   Clear
7:15 PM 62.6 °F - 46.4 °F 55% 29.96 in 10.0 mi SE 6.9 mph - N/A   Clear
7:35 PM 60.8 °F - 46.4 °F 59% 29.96 in 10.0 mi SSE 6.9 mph - N/A   Clear
7:55 PM 59.0 °F - 46.4 °F 63% 29.97 in 10.0 mi SSE 8.1 mph - N/A   Clear
8:15 PM 59.0 °F - 48.2 °F 67% 29.98 in 10.0 mi SSE 8.1 mph - N/A   Clear
8:35 PM 59.0 °F - 48.2 °F 67% 29.98 in 10.0 mi SSE 8.1 mph - N/A   Clear
8:55 PM 57.2 °F - 48.2 °F 72% 29.99 in 10.0 mi South 6.9 mph - N/A   Clear
9:15 PM 55.4 °F - 48.2 °F 77% 29.99 in 10.0 mi South 8.1 mph - N/A   Clear
9:35 PM 55.4 °F - 46.4 °F 72% 29.99 in 10.0 mi South 8.1 mph - N/A   Clear
9:55 PM 53.6 °F - 48.2 °F 82% 29.99 in 10.0 mi SSW 9.2 mph - N/A   Clear
10:15 PM 55.4 °F - 48.2 °F 77% 30.00 in 10.0 mi SSW 8.1 mph - N/A   Clear
10:35 PM 53.6 °F - 48.2 °F 82% 30.00 in 10.0 mi South 9.2 mph - N/A   Clear
10:55 PM 55.4 °F - 51.8 °F 88% 30.00 in 10.0 mi South 10.4 mph - N/A   Clear
11:15 PM 53.6 °F - 51.8 °F 94% 30.00 in 10.0 mi South 9.2 mph - N/A   Clear
11:35 PM 55.4 °F - 51.8 °F 88% 30.00 in 10.0 mi SSW 10.4 mph - N/A   Clear
11:55 PM 55.4 °F - 53.6 °F 94% 30.00 in 10.0 mi SSW 11.5 mph - N/A   Clear